ハーゲンローザー彗星

175P/Hergenrother (2019)

English version
Home page
Updated on May 19, 2019

---------------------------------------------------------------------

・ プロフィール

・ 写真集

・ 軌道要素

Epoch 2019 Oct. 4.0 TT = JDT 2458760.5
T 2019 Sept. 30.79343 TT                                MPCW
q   1.9463095            (2000.0)            P               Q
n   0.15534722     Peri.   56.19244     -0.99609600     -0.00217808
a   3.4271549      Node   123.53342     -0.02823536     -0.93931847
e   0.4320917      Incl.    6.07732     +0.08363928     -0.34303947
P   6.34
From 812 observations 2000 Jan. 4-2019 Jan. 11, mean residual 0".6.
     Nongravitational parameters A1 = +0.54, A2 = +0.0097.

・ 光度変化

        m1 = 9.5 + 5 logΔ + 20.0 log r(t - 50)

---------------------------------------------------------------------

軌道要素はM.P.E.C. 2019-J142に掲載されたものです。
光度グラフはComet for Windowsで作成したものです。

---------------------------------------------------------------------

Copyright(C) Seiichi Yoshida (comet@aerith.net). All rights reserved.